Terminal Aerodrome Forecast
Issued by NWS

Home | Current Version | Previous Version | Text Only | Print | Product List | Glossary On
Versions: 1 2 3 4 5 6 7 8 9 10 11 12 13 14 15 16 17 18
000
FTUS46 KHNX 181435 AAA
TAFVIS
TAF AMD
KVIS 181435Z 1815/1912 11004KT 6SM BR SCT080
     FM181900 16005KT P6SM SCT060
     FM190100 VRB03KT 4SM HZ BKN250
     FM190600 VRB03KT 2SM BR SCT007 BKN250
     FM191000 VRB03KT 1/2SM FG OVC007=

USA.gov is the U.S. government's official web portal to all federal, state and local government web resources and services.